Simultaneous Nadir Overpasses (SNOs) Predictions

Prediction of SNOs between METOP-C and LANDSAT-8 Satellite Orbit:

Table of predicted SNOs for the next 14.0 days since TLE Epoch: 5/9/2020
Index Date (METOP-C) Time (METOP-C) Lat,Lon (METOP-C) SZA (METOP-C ) Date (LANDSAT-8) Time (LANDSAT-8) Lat,Lon (LANDSAT-8) SZA (LANDSAT-8 ) Distance(km) Time Diff (sec)
1 05/10/2020 00:42:21 81.06,-152.42 65.43 05/10/2020 00:42:57 81.05,-152.51 65.43 1.58 36
2 05/10/2020 01:33:00 -81.08, 15.61 114.50 05/10/2020 01:32:23 -81.08, 15.47 114.53 2.55 37
3 05/12/2020 20:16:45 81.04, -86.46 64.66 05/12/2020 20:17:11 81.04, -86.29 64.69 2.82 26
4 05/12/2020 21:07:23 -81.08, 82.01 115.20 05/12/2020 21:06:36 -81.09, 82.06 115.21 1.19 47
5 05/15/2020 15:51:07 81.05, -19.77 64.03 05/15/2020 15:51:24 81.05, -19.74 64.04 0.51 17
6 05/15/2020 16:41:46 -81.08, 148.39 115.87 05/15/2020 16:40:50 -81.07, 148.28 115.92 2.08 56
7 05/18/2020 11:25:28 81.06, 46.91 63.44 05/18/2020 11:25:36 81.05, 46.79 63.42 2.06 8
8 05/18/2020 12:16:08 -81.08,-145.24 116.51 05/18/2020 12:15:02 -81.08,-145.16 116.53 1.35 66
9 05/21/2020 06:09:12 -81.04, -54.51 117.21 05/21/2020 06:10:24 -81.04, -54.63 117.19 2.15 72
10 05/21/2020 06:59:51 81.05, 113.20 62.84 05/21/2020 06:59:49 81.06, 113.31 62.85 2.00 2




NCC Satellite Simultaneous Nadir Overpasses (SNOs) Prediction Service
